Home   Weather   Hamilton   Past weeks

Flag for Canada Past Weather in Hamilton, Ontario, Canada — Yesterday and Last 2 Weeks

Now
61 °F

Mostly cloudy.


Feels Like: 61 °F
Forecast: 57 / 72 °F
Wind: 13 mph from Southwest

Location: Hamilton Airport

Current Time: May 29, 2017 at 3:56:24 am

Latest Report: May 29, 2017 at 3:00 am


Visibility: 15 mi

Pressure: 29.68 "Hg

Humidity: 94%

Dew Point: 59 °F

Location of HamiltonLocation

Past Weather in Hamilton — Graph

°F

Hamilton Temperature Yesterday

Maximum temperature yesterday: 66 °F (at 2:00 pm)
Minimum temperature yesterday: 48 °F (at 5:00 am)
Average temperature yesterday: 59 °F

High & Low Weather Summary for the Past Weeks

 TemperatureHumidityPressure
High82 °F (May 17, 2:00 pm)100% (May 21, 8:00 am)30.34 "Hg (May 21, 8:00 am)
Low37 °F (May 15, 6:00 am)41% (May 20, 5:00 pm)29.49 "Hg (May 25, 4:16 pm)
Average57 °F78%29.88 "Hg
* Reported May 14 2:00 am — May 29 2:00 am, Hamilton. Weather by CustomWeather, © 2017

Note: Actual official high and low records may vary slightly from our data, if they occured in-between our weather recording intervals... More about our weather records

Advertising

Hamilton Weather History for the Previous 24 Hours

Scroll right to see more
 ConditionsComfort  
Time TempWeatherWind HumidityBarometerVisibility
2:00 am
Mon, May 29
61 °FMostly cloudy.10 mph94%29.67 "Hg15 mi
1:00 am61 °FMostly cloudy.12 mph94%29.68 "Hg15 mi
12:00 am61 °FMostly cloudy.7 mph94%29.70 "Hg15 mi
11:34 pm
Sun, May 28
61 °FSprinkles. Overcast.17 mph94%29.70 "Hg15 mi
10:38 pm59 °FThunderstorms. Overcast.9 mph94%29.71 "Hg12 mi
10:00 pm59 °FThunderstorms. Overcast.8 mph88%29.72 "Hg15 mi
9:00 pm61 °FThunderstorms. Mostly cloudy.8 mph83%29.72 "Hg15 mi
8:00 pm61 °FMostly cloudy.9 mph83%29.73 "Hg15 mi
7:00 pm63 °FPartly sunny.10 mph77%29.72 "Hg15 mi
6:00 pm66 °FPartly sunny.12 mph73%29.74 "Hg15 mi
5:00 pm66 °FScattered clouds.13 mph73%29.75 "Hg15 mi
4:00 pm66 °FPartly sunny.13 mph73%29.76 "Hg15 mi
3:00 pm66 °FPartly sunny.13 mph73%29.78 "Hg15 mi
2:00 pm66 °FBroken clouds.12 mph73%29.80 "Hg15 mi
1:00 pm64 °FBroken clouds.14 mph78%29.83 "Hg15 mi
12:00 pm64 °FPartly sunny.15 mph78%29.83 "Hg15 mi
11:00 am64 °FPartly sunny.14 mph73%29.84 "Hg12 mi
10:00 am61 °FBroken clouds.12 mph83%29.83 "Hg6 mi
9:00 am59 °FPartly sunny.9 mph88%29.85 "Hg6 mi
8:00 am55 °FFog.7 mph94%29.85 "Hg6 mi
7:00 am54 °FFog.8 mph94%29.86 "Hg8 mi
6:00 am50 °FFog.7 mph100%29.87 "Hg15 mi
5:00 am48 °FPassing clouds.6 mph100%29.88 "Hg15 mi
4:00 am52 °FClear.3 mph94%29.88 "Hg15 mi
3:00 am52 °FFog.No wind94%29.89 "Hg15 mi
Weather by CustomWeather, © 2017

See weather overviewHow to use our weather pages